Flag for Canada Weather past 2 weeks in Hamilton, Ontario, Canada

Now
75 °F

Scattered clouds.


Feels Like: 77 °F
Forecast: 60 / 78 °F
Wind: 8 mph from Southwest

Location: Hamilton Airport

Current Time: Jul 5, 2015 at 11:46:16 AM

Latest Report: Jul 5, 2015 at 11:00 AM


Visibility: 15 mi

Pressure: 30.14 "Hg

Humidity: 61%

Dew point: 61 °F

Location of HamiltonLocation

Historic Weather in Hamilton — Graph

°F

Hamilton temperature yesterday

Maximum temperature yesterday: 77 °F (at 4:00 PM)
Minimum temperature yesterday: 54 °F (at 4:00 AM)
Average temperature yesterday: 66 °F

Past Weeks' High & Low Weather Summary

 TemperatureHumidityPressure
High79 °F (Jun 22, 2:00 PM)100% (Jun 23, 4:00 AM)30.14 "Hg (Jun 23, 4:00 AM)
Low50 °F (Jun 28, 7:00 AM)34% (Jun 25, 4:00 PM)29.67 "Hg (Jun 23, 5:00 AM)
Average64 °F77%29.92 "Hg
* Reported Jun 20 11:00 AM — Jul 5 11:00 AM, Hamilton, Weather by CustomWeather, © 2015

Note: Actual official high and low records may vary slightly from our data, if they occured in-between our weather recording intervals... More about our weather records

Advertising

Hamilton weather history for previous 24 hours

 ConditionsComfort  
Time TempWeatherWind HumidityBarometerVisibility
11:00 AM
Sun, Jul 5
75 °FScattered clouds.8 mph61%30.14 "Hg15 mi
10:00 AM72 °FPassing clouds.6 mph69%30.13 "Hg15 mi
9:00 AM66 °FPassing clouds.5 mph83%30.14 "Hg15 mi
8:00 AM63 °FPassing clouds.5 mph88%30.13 "Hg15 mi
7:00 AM59 °FPassing clouds.3 mph94%30.11 "Hg12 mi
6:00 AM57 °FPassing clouds.3 mph100%30.09 "Hg12 mi
5:00 AM55 °FPassing clouds.5 mph100%30.08 "Hg15 mi
4:00 AM57 °FPassing clouds.5 mph100%30.08 "Hg15 mi
3:00 AM57 °FPassing clouds.3 mph100%30.07 "Hg15 mi
2:00 AM57 °FPassing clouds.5 mph100%30.06 "Hg15 mi
1:00 AM59 °FPassing clouds.5 mph94%30.06 "Hg15 mi
12:00 AM64 °FClear.5 mph83%30.03 "Hg15 mi
11:00 PM
Sat, Jul 4
64 °FPassing clouds.5 mph88%30.02 "Hg15 mi
10:00 PM64 °FPassing clouds.5 mph88%30.01 "Hg15 mi
9:00 PM66 °FPassing clouds.5 mph83%29.98 "Hg15 mi
8:00 PM72 °FPassing clouds.6 mph69%29.97 "Hg15 mi
7:00 PM75 °FPassing clouds.7 mph54%29.97 "Hg15 mi
6:00 PM75 °FPassing clouds.7 mph50%29.97 "Hg15 mi
5:00 PM75 °FPassing clouds.6 mph54%29.97 "Hg15 mi
4:00 PM77 °FScattered clouds.5 mph44%29.97 "Hg15 mi
3:00 PM75 °FPartly sunny.7 mph47%29.97 "Hg15 mi
2:00 PM73 °FPassing clouds.7 mph50%29.97 "Hg15 mi
1:00 PM73 °FPassing clouds.5 mph50%29.96 "Hg15 mi
12:00 PM72 °FPassing clouds.No wind50%29.97 "Hg15 mi
11:00 AM70 °FPassing clouds.5 mph50%29.97 "Hg15 mi
Weather by CustomWeather, © 2015

See weather overviewHow to use our weather pages